Weather History for Wheeling, WV

Change the Weather History Date:

Saturday, February 11, 2012

  Actual Average Record
Temperature  
Mean Temperature 20 °F 31 °F  
Max Temperature 28 °F 39 °F 67 °F (2009)
Min Temperature 12 °F 24 °F 1 °F (2014)
Degree Days  
Heating Degree Days 45 34  
Month to date heating degree days 347 380  
Since 1 July heating degree days 2912 3622  
Cooling Degree Days 0    
Month to date cooling degree days 0  
Year to date cooling degree days 0  
Moisture  
Dew Point 16 °F    
Average Humidity 80    
Maximum Humidity 92    
Minimum Humidity 67    
Precipitation  
Precipitation T in 0.08 in 0.35 in (1986)
Month to date precipitation 0.40 0.85  
Sea Level Pressure  
Sea Level Pressure 29.92 in    
Wind  
Wind Speed 13 mph (West)    
Max Wind Speed 31 mph    
Max Gust Speed 38 mph    
Visibility 4 miles    
Events Fog , Snow    
T = Trace of Precipitation, MM = Missing Value Source: NWS Daily Summary

Daily Weather History Graph

Daily Weather History Graph

Search for Another Location

Airport:

Trip Planner

Search our weather history database for the weather conditions in past years. The results will help you decide how hot, cold, wet, or windy it might be!

Date:

Astronomy

Feb. 11, 2012 Rise Set
Actual Time 7:21 AM EST 5:52 PM EST
Civil Twilight 6:53 AM EST 6:21 PM EST
Nautical Twilight 6:21 AM EST 6:53 PM EST
Astronomical Twilight 5:49 AM EST 7:24 PM EST
Moon 10:39 PM EST (2/11) 9:02 AM EST (2/11)
Length of Visible Light 11h 27m
Length of Day
10h 31m
Waning Gibbous, 82% of the Moon is Illuminated
Feb 11
Waning Gibbous
Feb 14
Last Quarter
Feb 21
New
Feb 29
First Quarter
Mar 8
Full

Hourly Weather History & Observations

Time (EST) Temp. Windchill Dew Point Humidity Pressure Visibility Wind Dir Wind Speed Gust Speed Precip Events Conditions
12:53 AM 27.0 °F 19.5 °F 24.1 °F 89% 29.89 in 9.0 mi SSW 6.9 mph - N/A   Overcast
1:53 AM 27.0 °F 21.6 °F 24.1 °F 89% 29.87 in 8.0 mi SSW 4.6 mph - N/A   Overcast
2:53 AM 28.0 °F 21.7 °F 25.0 °F 88% 29.85 in 4.0 mi South 5.8 mph - N/A   Overcast
3:14 AM 28.4 °F 23.3 °F 24.8 °F 86% 29.79 in 2.0 mi South 4.6 mph - 0.00 in Snow Light Snow
3:21 AM 28.4 °F 23.3 °F 24.8 °F 86% 29.79 in 1.5 mi South 4.6 mph - 0.00 in Snow Light Snow
3:33 AM 28.4 °F 22.2 °F 26.6 °F 93% 29.78 in 1.5 mi South 5.8 mph - 0.00 in Snow Light Snow
3:53 AM 27.0 °F 19.5 °F 26.1 °F 96% 29.82 in 1.5 mi South 6.9 mph - 0.00 in Snow Light Snow
4:08 AM 28.4 °F 21.2 °F 26.6 °F 93% 29.76 in 2.5 mi South 6.9 mph - 0.00 in Snow Light Snow
4:41 AM 28.4 °F 22.2 °F 26.6 °F 93% 29.75 in 2.0 mi South 5.8 mph - 0.00 in Snow Light Snow
4:53 AM 28.0 °F 21.7 °F 26.1 °F 92% 29.79 in 1.8 mi South 5.8 mph - 0.00 in Snow Light Snow
5:37 AM 28.4 °F 22.2 °F 26.6 °F 93% 29.74 in 1.0 mi SSW 5.8 mph - 0.00 in Snow Light Snow
5:53 AM 28.0 °F 20.8 °F 26.1 °F 92% 29.78 in 1.0 mi SW 6.9 mph - 0.00 in Snow Light Snow
6:40 AM 28.4 °F 19.1 °F 26.6 °F 93% 29.74 in 1.0 mi SW 10.4 mph - 0.00 in Snow Light Snow
6:53 AM 28.0 °F 18.6 °F 26.1 °F 92% 29.78 in 1.0 mi SW 10.4 mph - 0.00 in Snow Light Snow
7:35 AM 28.4 °F 19.1 °F 26.6 °F 93% 29.74 in 0.8 mi WSW 10.4 mph - 0.00 in Snow Light Snow
7:40 AM 28.4 °F 18.0 °F 26.6 °F 93% 29.75 in 0.5 mi WSW 12.7 mph 20.7 mph 0.00 in Fog , Snow Light Snow
7:53 AM 27.0 °F 14.7 °F 24.1 °F 89% 29.82 in 0.5 mi West 16.1 mph 28.8 mph 0.00 in Fog , Snow Light Snow
8:15 AM 24.8 °F 11.9 °F 21.2 °F 86% 29.79 in 0.8 mi West 16.1 mph 25.3 mph 0.00 in Snow Light Snow
8:28 AM 23.0 °F 9.2 °F 19.4 °F 86% 29.81 in 0.8 mi West 17.3 mph 25.3 mph 0.00 in Snow Light Snow
8:38 AM 23.0 °F 7.6 °F 19.4 °F 86% 29.81 in 1.5 mi WNW 21.9 mph 33.4 mph 0.00 in Snow Light Snow
8:45 AM 23.0 °F 9.6 °F 19.4 °F 86% 29.82 in 1.8 mi WNW 16.1 mph 27.6 mph 0.00 in Snow Light Snow
8:53 AM 21.9 °F 8.7 °F 18.0 °F 85% 29.88 in 1.8 mi West 15.0 mph 25.3 mph 0.00 in Snow Light Snow
9:02 AM 21.2 °F 7.3 °F 17.6 °F 86% 29.83 in 2.5 mi West 16.1 mph 23.0 mph 0.00 in Snow Light Snow
9:22 AM 21.2 °F 7.3 °F 17.6 °F 86% 29.84 in 1.8 mi WNW 16.1 mph 24.2 mph 0.00 in Snow Light Snow
9:43 AM 21.2 °F 8.9 °F 15.8 °F 80% 29.85 in 2.5 mi WNW 12.7 mph 27.6 mph 0.00 in Snow Light Snow
9:53 AM 21.9 °F 7.3 °F 16.0 °F 78% 29.91 in 2.0 mi WNW 18.4 mph 29.9 mph 0.00 in Snow Light Snow
10:07 AM 21.2 °F 9.5 °F 15.8 °F 80% 29.86 in 4.0 mi WNW 11.5 mph 28.8 mph 0.00 in Snow Light Snow
10:15 AM 21.2 °F 6.4 °F 15.8 °F 80% 29.87 in 1.8 mi West 18.4 mph 24.2 mph 0.00 in Snow Light Snow
10:41 AM 21.2 °F 6.4 °F 15.8 °F 80% 29.88 in 2.5 mi West 18.4 mph 27.6 mph 0.00 in Snow Light Snow
10:53 AM 21.0 °F 7.1 °F 15.1 °F 78% 29.94 in 1.8 mi West 16.1 mph 25.3 mph 0.00 in Snow Light Snow
11:05 AM 19.4 °F 3.2 °F 14.0 °F 80% 29.89 in 3.0 mi West 20.7 mph 26.5 mph 0.00 in Snow Light Snow
11:14 AM 19.4 °F 5.5 °F 14.0 °F 80% 29.89 in 2.5 mi West 15.0 mph 25.3 mph 0.00 in Snow Light Snow
11:25 AM 21.2 °F 7.3 °F 14.0 °F 74% 29.89 in 4.0 mi WNW 16.1 mph 21.9 mph 0.00 in Snow Light Snow
11:53 AM 19.9 °F 5.2 °F 14.0 °F 78% 29.95 in 2.5 mi West 17.3 mph 23.0 mph 0.00 in Snow Light Snow
12:12 PM 19.4 °F 6.6 °F 12.2 °F 74% 29.90 in 4.0 mi West 12.7 mph 27.6 mph 0.00 in Snow Light Snow
12:53 PM 19.0 °F 6.1 °F 12.9 °F 77% 29.96 in 3.0 mi West 12.7 mph 20.7 mph 0.00 in Snow Light Snow
1:51 PM 19.4 °F 3.6 °F 10.4 °F 68% 29.90 in 8.0 mi WNW 19.6 mph 29.9 mph 0.00 in   Overcast
1:53 PM 19.9 °F 6.2 °F 10.0 °F 65% 29.96 in 7.0 mi West 15.0 mph 23.0 mph 0.00 in Snow Light Snow
2:13 PM 19.4 °F 5.5 °F 12.2 °F 74% 29.91 in 1.5 mi West 15.0 mph 27.6 mph 0.00 in Snow Light Snow
2:24 PM 19.4 °F 4.5 °F 12.2 °F 74% 29.90 in 3.0 mi West 17.3 mph 26.5 mph 0.00 in Snow Light Snow
2:53 PM 19.9 °F 5.7 °F 10.9 °F 68% 29.98 in 7.0 mi West 16.1 mph 24.2 mph 0.00 in   Overcast
3:04 PM 19.4 °F 4.1 °F 10.4 °F 68% 29.92 in 2.0 mi West 18.4 mph 31.1 mph 0.00 in Snow Light Snow
3:09 PM 19.4 °F 5.5 °F 10.4 °F 68% 29.93 in 4.0 mi NW 15.0 mph - 0.00 in Snow Light Snow
3:31 PM 19.4 °F 3.6 °F 10.4 °F 68% 29.94 in 3.0 mi WNW 19.6 mph 38.0 mph 0.00 in Snow Light Snow
3:53 PM 19.0 °F 2.0 °F 10.9 °F 71% 30.01 in 5.0 mi WNW 23.0 mph 34.5 mph 0.00 in Snow Light Snow
4:12 PM 17.6 °F 0.5 °F 8.6 °F 68% 29.96 in 5.0 mi WNW 21.9 mph 36.8 mph 0.00 in   Haze
4:53 PM 17.1 °F 1.5 °F 9.0 °F 71% 30.04 in 6.0 mi West 17.3 mph 29.9 mph 0.00 in   Haze
5:53 PM 16.0 °F 3.6 °F 9.0 °F 74% 30.08 in 2.5 mi WNW 10.4 mph 32.2 mph 0.00 in Snow Light Snow
6:14 PM 15.8 °F -0.2 °F 8.6 °F 73% 30.03 in 5.0 mi WNW 17.3 mph 32.2 mph 0.00 in Snow Light Snow
6:53 PM 15.1 °F -1.1 °F 8.1 °F 74% 30.12 in 7.0 mi West 17.3 mph 32.2 mph 0.00 in   Overcast
7:06 PM 15.8 °F -0.6 °F 8.6 °F 73% 30.07 in 8.0 mi WNW 18.4 mph 26.5 mph N/A   Overcast
7:20 PM 15.8 °F -1.9 °F 6.8 °F 68% 30.08 in 6.0 mi West 21.9 mph 31.1 mph N/A   Haze
7:51 PM 14.0 °F -0.2 °F 6.8 °F 73% 30.09 in 10.0 mi West 12.7 mph 21.9 mph 0.00 in   Overcast
7:53 PM 14.0 °F -3.0 °F 7.0 °F 74% 30.16 in 10.0 mi WNW 18.4 mph 28.8 mph 0.00 in   Overcast
8:53 PM 12.9 °F -4.4 °F 5.0 °F 71% 30.19 in 10.0 mi WNW 18.4 mph - N/A   Overcast
9:53 PM 12.9 °F -1.6 °F 3.9 °F 67% 30.21 in 10.0 mi West 12.7 mph 20.7 mph N/A   Overcast
10:53 PM 12.0 °F -0.4 °F 3.0 °F 67% 30.21 in 10.0 mi West 9.2 mph - N/A   Overcast
11:53 PM 12.9 °F 0.7 °F 3.0 °F 65% 30.21 in 10.0 mi West 9.2 mph - N/A   Overcast